Date String (YYYY-MM-DD hh:mm:ss) UTC,Instrument flags,absolute air pressure of the measurement (hPa),sample flow rate (lpm),inlet stack bypass flow (lpm),air temperature of the measurement (°C),ambient temperature measured by the external sensor (°C),aerosol sample conditioner tube jacket temperature (°C),OPC LED temperature (°C),internal box temperature (°C),relative humidity of the measurement (%),span deviation,mass concentration of particles derived from Lorenz-Mie calculation of OPC scattering (μg/m³),mass concentration of particles derived from Lorenz-Mie calculation of OPC scattering (μg/m³),mass concentration of particles derived from Lorenz-Mie calculation of OPC scattering (μg/m³)
DateTimeUTC,F1_M11,P_M11,Q1_M11,Q2_M11,T1_M11,T2_M11,T3_M11,T4_M11,T5_M11,U1_M11,ZSPAN_M11,X0_M11,X2_M11,X1_M11
2023-11-23 03:00:00,SystemResetWarning,0827.8,5.00,000.00,025.8,024.8,000.0,034.1,027.1,8.2,0000.0,0001.09,0000.36,0000.30
2023-11-23 03:01:00,SystemResetWarning,0827.9,4.99,000.00,025.8,024.8,000.0,034.1,027.0,8.1,0000.0,0001.10,0000.37,0000.30
2023-11-23 03:02:00,SystemResetWarning,0827.8,4.99,000.00,025.8,024.8,000.0,034.1,027.0,8.1,0000.0,0000.62,0000.37,0000.31
2023-11-23 03:03:00,SystemResetWarning,0827.9,5.00,000.00,025.7,024.8,000.0,034.1,027.0,8.2,0000.0,0000.54,0000.38,0000.31
2023-11-23 03:04:00,SystemResetWarning,0827.8,5.00,000.00,025.8,024.8,000.0,034.1,027.0,8.2,0000.0,0000.49,0000.36,0000.31
2023-11-23 03:05:00,SystemResetWarning,0827.8,5.00,000.00,025.7,024.8,000.0,034.1,027.0,8.2,0000.0,0000.44,0000.35,0000.31
2023-11-23 03:06:00,SystemResetWarning,0827.8,5.00,000.00,025.7,024.8,000.0,034.1,027.0,8.1,0000.0,0000.43,0000.34,0000.30
2023-11-23 03:07:00,SystemResetWarning,0827.8,4.99,000.00,025.7,024.8,000.0,034.1,027.0,8.2,0000.0,0000.44,0000.34,0000.30
2023-11-23 03:08:00,SystemResetWarning,0827.8,4.99,000.00,025.7,024.8,000.0,034.1,027.0,8.2,0000.0,0000.47,0000.35,0000.30
2023-11-23 03:09:00,SystemResetWarning,0827.7,5.00,000.00,025.7,024.7,000.0,034.1,027.0,8.2,0000.0,0000.46,0000.35,0000.31
2023-11-23 03:10:00,SystemResetWarning,0827.7,5.00,000.00,025.7,024.7,000.0,034.1,027.0,8.2,0000.0,0000.45,0000.35,0000.31
2023-11-23 03:11:00,SystemResetWarning,0827.7,5.01,000.00,025.7,024.8,000.0,034.1,027.0,8.2,0000.0,0000.47,0000.36,0000.32
2023-11-23 03:12:00,SystemResetWarning,0827.8,5.00,000.00,025.7,024.8,000.0,034.1,027.0,8.2,0000.0,0000.49,0000.36,0000.32
2023-11-23 03:13:00,SystemResetWarning,0827.8,5.01,000.00,025.7,024.7,000.0,034.1,027.0,8.2,0000.0,0000.50,0000.36,0000.31
2023-11-23 03:14:00,SystemResetWarning,0827.8,5.00,000.00,025.7,024.7,000.0,034.1,026.9,8.2,0000.0,0000.49,0000.36,0000.31
2023-11-23 03:15:00,SystemResetWarning,0827.8,5.00,000.00,025.7,024.7,000.0,034.1,027.0,8.2,0000.0,0000.47,0000.35,0000.31
2023-11-23 03:16:00,SystemResetWarning,0827.7,5.01,000.00,025.7,024.7,000.0,034.1,027.0,8.2,0000.0,0000.48,0000.35,0000.31
2023-11-23 03:17:00,SystemResetWarning,0827.7,4.99,000.00,025.7,024.7,000.0,034.1,027.0,8.3,0000.0,0000.49,0000.35,0000.31
2023-11-23 03:18:00,SystemResetWarning,0827.7,5.00,000.00,025.7,024.7,000.0,034.1,027.0,8.3,0000.0,0000.50,0000.36,0000.32
2023-11-23 03:19:00,SystemResetWarning,0827.7,4.99,000.00,025.7,024.7,000.0,034.1,027.0,8.3,0000.0,0000.50,0000.36,0000.32
2023-11-23 03:20:00,SystemResetWarning,0827.8,5.01,000.00,025.7,024.7,000.0,034.0,027.0,8.3,0000.0,0000.51,0000.36,0000.32
2023-11-23 03:21:00,SystemResetWarning,0827.8,5.01,000.00,025.7,024.7,000.0,034.0,027.0,8.4,0000.0,0000.59,0000.39,0000.32
2023-11-23 03:22:00,SystemResetWarning,0827.8,5.01,000.00,025.7,024.7,000.0,034.0,026.9,8.4,0000.0,0000.64,0000.41,0000.32
2023-11-23 03:23:00,SystemResetWarning,0827.8,5.00,000.00,025.7,024.7,000.0,034.0,026.9,8.4,0000.0,0000.64,0000.41,0000.31
2023-11-23 03:24:00,SystemResetWarning,0827.8,4.99,000.00,025.7,024.7,000.0,034.0,026.9,8.5,0000.0,0000.64,0000.41,0000.32
2023-11-23 03:25:00,SystemResetWarning,0827.8,4.99,000.00,025.7,024.7,000.0,034.0,026.9,8.5,0000.0,0000.69,0000.43,0000.33
2023-11-23 03:26:00,SystemResetWarning,0827.8,5.01,000.00,025.7,024.7,000.0,034.0,026.9,8.4,0000.0,0000.70,0000.44,0000.33
2023-11-23 03:27:00,SystemResetWarning,0827.8,5.00,000.00,025.7,024.7,000.0,034.0,026.9,8.5,0000.0,0000.69,0000.43,0000.33
2023-11-23 03:28:00,SystemResetWarning,0827.8,5.01,000.00,025.7,024.7,000.0,034.0,026.9,8.5,0000.0,0000.67,0000.43,0000.33
2023-11-23 03:29:00,SystemResetWarning,0827.8,5.00,000.00,025.7,024.7,000.0,034.0,026.9,8.5,0000.0,0000.71,0000.44,0000.33
2023-11-23 03:30:00,SystemResetWarning,0827.8,4.99,000.00,025.7,024.7,000.0,034.0,026.9,8.5,0000.0,0000.72,0000.44,0000.33
2023-11-23 03:31:00,SystemResetWarning,0827.8,4.99,000.00,025.7,024.7,000.0,034.0,027.0,8.4,0000.0,0000.75,0000.45,0000.34
2023-11-23 03:32:00,SystemResetWarning,0827.8,5.00,000.00,025.7,024.7,000.0,034.0,026.9,8.5,0000.0,0000.69,0000.44,0000.34
2023-11-23 03:33:00,SystemResetWarning,0827.8,5.00,000.00,025.7,024.7,000.0,034.0,026.9,8.5,0000.0,0000.67,0000.43,0000.34
2023-11-23 03:34:00,SystemResetWarning,0827.8,5.01,000.00,025.7,024.7,000.0,034.0,026.9,8.4,0000.0,0000.65,0000.43,0000.35
2023-11-23 03:35:00,SystemResetWarning,0827.8,5.00,000.00,025.7,024.7,000.0,034.0,026.9,8.4,0000.0,0000.66,0000.43,0000.35
2023-11-23 03:36:00,SystemResetWarning,0827.8,5.00,000.00,025.7,024.7,000.0,034.0,026.9,8.4,0000.0,0000.60,0000.42,0000.35
2023-11-23 03:37:00,SystemResetWarning,0827.8,5.00,000.00,025.7,024.7,000.0,034.0,026.9,8.5,0000.0,0000.59,0000.41,0000.35
2023-11-23 03:38:00,SystemResetWarning,0827.7,4.99,000.00,025.7,024.7,000.0,034.0,026.9,8.5,0000.0,0000.60,0000.42,0000.35
2023-11-23 03:39:00,SystemResetWarning,0827.7,5.00,000.00,025.7,024.7,000.0,034.0,026.9,8.5,0000.0,0000.62,0000.43,0000.36
2023-11-23 03:40:00,SystemResetWarning,0827.7,5.00,000.00,025.7,024.7,000.0,034.0,026.9,8.5,0000.0,0000.61,0000.42,0000.36
2023-11-23 03:41:00,SystemResetWarning,0827.8,5.00,000.00,025.7,024.7,000.0,034.0,026.9,8.5,0000.0,0000.66,0000.42,0000.37
2023-11-23 03:42:00,SystemResetWarning,0827.8,4.99,000.00,025.7,024.7,000.0,034.0,026.9,8.6,0000.0,0002.23,0000.41,0000.36
2023-11-23 03:43:00,SystemResetWarning,0827.8,5.00,000.00,025.7,024.7,000.0,034.0,026.9,8.6,0000.0,0002.22,0000.40,0000.35
2023-11-23 03:44:00,SystemResetWarning,0827.8,5.00,000.00,025.7,024.7,000.0,034.0,026.9,8.6,0000.0,0002.19,0000.40,0000.36
2023-11-23 03:45:00,SystemResetWarning,0827.8,5.00,000.00,025.6,024.7,000.0,034.0,026.9,8.6,0000.0,0002.19,0000.40,0000.36
2023-11-23 03:46:00,SystemResetWarning,0827.8,5.00,000.00,025.6,024.7,000.0,034.0,026.9,8.6,0000.0,0002.20,0000.41,0000.36
2023-11-23 03:47:00,SystemResetWarning,0827.8,5.00,000.00,025.6,024.7,000.0,034.0,026.9,8.6,0000.0,0002.19,0000.41,0000.36
2023-11-23 03:48:00,SystemResetWarning,0827.8,5.00,000.00,025.6,024.7,000.0,034.0,026.9,8.6,0000.0,0002.20,0000.42,0000.36
2023-11-23 03:49:00,SystemResetWarning,0827.8,5.00,000.00,025.6,024.7,000.0,034.0,026.9,8.6,0000.0,0002.22,0000.43,0000.38
2023-11-23 03:50:00,SystemResetWarning,0828.0,5.00,000.00,025.7,024.7,000.0,034.0,027.0,8.7,0000.0,0002.22,0000.43,0000.38
2023-11-23 03:51:00,SystemResetWarning,0827.9,5.00,000.00,025.7,024.8,000.0,034.0,027.0,8.6,0000.0,0002.20,0000.43,0000.39
2023-11-23 03:52:00,SystemResetWarning,0827.9,4.99,000.00,025.7,024.8,000.0,034.0,027.0,8.6,0000.0,0002.18,0000.43,0000.39
2023-11-23 03:53:00,SystemResetWarning,0827.9,5.00,000.00,025.7,024.8,000.0,034.0,027.0,8.5,0000.0,0000.82,0000.45,0000.40
2023-11-23 03:54:00,SystemResetWarning,0828.0,5.00,000.00,025.7,024.8,000.0,034.0,027.1,8.5,0000.0,0000.66,0000.46,0000.41
2023-11-23 03:55:00,SystemResetWarning,0828.0,5.00,000.00,025.7,024.9,000.0,034.0,027.1,8.5,0000.0,0000.68,0000.47,0000.42
2023-11-23 03:56:00,SystemResetWarning,0828.0,5.00,000.00,025.7,024.9,000.0,034.0,027.1,8.5,0000.0,0000.73,0000.49,0000.43
2023-11-23 03:57:00,SystemResetWarning,0827.9,5.00,000.00,025.8,024.9,000.0,034.0,027.1,8.4,0000.0,0000.89,0000.55,0000.45
2023-11-23 03:58:00,SystemResetWarning,0827.9,5.00,000.00,025.8,024.9,000.0,034.0,027.1,8.5,0000.0,0001.06,0000.61,0000.46
2023-11-23 03:59:00,SystemResetWarning,0827.8,5.00,000.00,025.8,024.9,000.0,034.0,027.1,8.4,0000.0,0001.18,0000.65,0000.47
